Location: Unspecified
(0.0000°N, 0.0000°E)
Time: 19:32:35
(UTC+00:00)

Vanguard 1 Rocket - Pass Details

Date: 22 April 2026
Orbit: 655 x 4212 km, 34.3° (Epoch: 17 May)

Event Time Altitude Azimuth Distance (km) Brightness Sun altitude
Rises 03:34:23 0° 313° (NW) 7,369 11.8 -35.1°
Reaches altitude 10° 03:40:23 10° 318° (NW) 5,796 11.2 -33.7°
Maximum altitude 03:55:05 49° 29° (NNE) 2,185 9.4 -30.1°
Drops below altitude 10° 04:02:42 10° 102° (ESE) 3,127 10.9 -28.3°
Sets 04:04:56 0° 108° (ESE) 3,817 11.4 -27.7°
